Meteo Giornale » Osservazioni meteo Italia » Paganella

ore: 17:55 - Osservazioni Meteo Paganella
Lat. 46° 9' N Lon. 11° 2' E Alt. 2125 metri s.l.m.

sereno Europe/Rome

15 °C

Sereno

Temp. 24 Ore

13 °C

17 °C

Sud

25.9 Km/h

Dew point 12 °C

Umidità 82 %

Visibilità  10 Km

Il sole sorge alle ore 05:22

Il sole tramonta alle ore 21:12

Data e Ora Cielo e Fenomeni T °C DP °C Um. % Pres. hPa Vis. km Vento km/h
Oggi h: 17:55 sereno Sereno 15 12 82 1024 10 S 25.9
Oggi h: 16:55 sereno Sereno 15 11 76 1024 10 S/SE 22.2
Oggi h: 15:55 sereno Sereno 16 11 72 1026 10 S 25.9
Oggi h: 14:55 sereno Sereno 16 8 58 1026 10 S 25.9
Oggi h: 13:55 sereno Sereno 16 9 63 1027 10 S 22.2
Oggi h: 12:55 sereno Sereno 17 9 59 1027 10 S/SO 25.9
Oggi h: 11:55 sereno Sereno 15 8 62 1027 10 S 25.9
Oggi h: 10:55 nuvoloso_temporali Temporale con Pioggia Debole 16 10 67 1028 10 S/SO 44.4
Oggi h: 09:55 sereno Sereno 16 9 63 1027 10 SO 18.5
Oggi h: 08:55 sereno Sereno 15 7 58 1028 10 O/SO 25.9
Oggi h: 07:55 sereno Sereno 15 7 58 1028 10 S 22.2
Oggi h: 06:55 sereno Sereno 14 6 58 1028 10 SO 11.1
Oggi h: 05:55 sereno Sereno 13 6 62 1028 10 S/SO 22.2
Oggi h: 04:55 sereno Sereno 13 7 66 1029 10 SO 22.2
Oggi h: 03:55 sereno Sereno 14 7 62 1030 10 SO 22.2
Oggi h: 02:55 sereno Sereno 14 7 62 1030 10 SO 25.9
Oggi h: 01:55 sereno Sereno 14 7 62 1030 10 SO 25.9
Oggi h: 00:55 sereno Sereno 14 7 62 1030 10 SO 29.6
Ieri h: 23:55 sereno Sereno 14 7 62 1030 10 SO 29.6
Ieri h: 22:55 sereno Sereno 14 8 67 1030 3 SO 33.3
Ieri h: 21:55 sereno Sereno 14 8 67 1030 10 S 22.2
Ieri h: 20:55 sereno Sereno 15 8 62 1030 10 O/SO 25.9
Ieri h: 19:55 sereno Sereno 15 9 67 1030 10 SO 25.9